Luke AFB, AZ

6:06 PM MST on February 24, 2017 (GMT -0700)
Luke Air Force Base

Weather History for KLUF - September, 2013

Change the Weather History Date:

Tuesday, September 3, 2013

  Actual Average Record
Temperature  
Mean Temperature 94 °F -  
Max Temperature 106 °F 105 °F 114 °F (1945)
Min Temperature 81 °F 73 °F 60 °F (1946)
Cooling Degree Days 28    
Growing Degree Days 44 (Base 50)    
Moisture  
Dew Point 62 °F    
Average Humidity 37    
Maximum Humidity 58    
Minimum Humidity 20    
Precipitation  
Precipitation 0.00 in - - ()
Sea Level Pressure  
Sea Level Pressure 29.78 in    
Wind  
Wind Speed 7 mph (NNW)    
Max Wind Speed 15 mph    
Max Gust Speed -    
Visibility 10 miles    
Events      
Averages and records for this station are not official NWS values.
T = Trace of Precipitation, MM = Missing Value Source: NWS Daily Summary

Daily Weather History Graph

Daily Weather History Graph

Search for Another Location

Airport or City:

Trip Planner

Search our weather history database for the weather conditions in past years. The results will help you decide how hot, cold, wet, or windy it might be!

Date:

Astronomy

Sep. 03, 2013 Rise Set
Actual Time 6:05 AM MST 6:51 PM MST
Civil Twilight 5:39 AM MST 7:17 PM MST
Nautical Twilight 5:09 AM MST 7:46 PM MST
Astronomical Twilight 4:39 AM MST 8:17 PM MST
Moon 4:24 AM MST (9/3) 5:40 PM MST (9/3)
Length of Visible Light 13h 37m
Length of Day
12h 46m
Waning Crescent, 3% of the Moon is Illuminated
Sep 3
Waning Crescent
Sep 5
New
Sep 12
First Quarter
Sep 19
Full
Sep 26
Last Quarter

Hourly Weather History & Observations

Time (MST) Temp. Heat Index Dew Point Humidity Pressure Visibility Wind Dir Wind Speed Gust Speed Precip Events Conditions
12:58 AM 87.4 °F 88.8 °F 64.0 °F 46% 29.78 in 10.0 mi NW 15.0 mph - N/A   Clear
1:58 AM 86.5 °F 87.8 °F 63.9 °F 47% 29.78 in 10.0 mi NW 11.5 mph - N/A   Scattered Clouds
2:58 AM 85.1 °F 86.9 °F 64.9 °F 51% 29.78 in 10.0 mi NW 6.9 mph - N/A   Clear
3:58 AM 84.0 °F 86.0 °F 65.5 °F 54% 29.78 in 10.0 mi Calm Calm - N/A   Clear
4:58 AM 83.7 °F 86.0 °F 66.2 °F 56% 29.79 in 10.0 mi Calm Calm - N/A   Clear
5:58 AM 82.4 °F 84.4 °F 66.0 °F 57% 29.81 in 10.0 mi Calm Calm - N/A   Scattered Clouds
6:58 AM 81.7 °F 83.6 °F 65.7 °F 58% 29.83 in 10.0 mi NE 4.6 mph - N/A   Scattered Clouds
7:58 AM 86.7 °F 88.7 °F 65.7 °F 49% 29.83 in 10.0 mi NNW 6.9 mph - N/A   Clear
8:58 AM 90.9 °F 93.1 °F 65.3 °F 43% 29.84 in 10.0 mi Variable 2.3 mph - N/A   Clear
9:58 AM 94.6 °F 95.9 °F 63.0 °F 35% 29.85 in 10.0 mi North 3.5 mph - N/A   Clear
10:58 AM 97.9 °F 98.8 °F 61.9 °F 30% 29.85 in 10.0 mi Variable 3.5 mph - N/A   Clear
11:58 AM 100.2 °F 101.0 °F 61.0 °F 27% 29.83 in 10.0 mi Variable 2.3 mph - N/A   Clear
12:58 PM 103.3 °F 104.1 °F 59.7 °F 24% 29.79 in 10.0 mi Variable 2.3 mph - N/A   Clear
3:58 PM 106.0 °F 107.8 °F 60.8 °F 23% 29.68 in 10.0 mi SSW 9.2 mph - N/A   Partly Cloudy
4:58 PM 106.2 °F 108.1 °F 60.6 °F 23% 29.71 in - Variable 6.9 mph - N/A   Partly Cloudy
5:58 PM 104.0 °F 102.9 °F 55.4 °F 20% 29.70 in 10.0 mi SSW 9.2 mph - N/A   Scattered Clouds
6:58 PM 102.2 °F 100.9 °F 55.4 °F 21% 29.72 in 10.0 mi South 9.2 mph - N/A   Scattered Clouds
7:58 PM 100.4 °F 100.2 °F 59.0 °F 25% 29.75 in 10.0 mi SSE 9.2 mph - N/A   Partly Cloudy
8:58 PM 98.6 °F 99.4 °F 60.8 °F 29% 29.78 in 10.0 mi East 5.8 mph - N/A   Scattered Clouds
9:58 PM 96.8 °F 97.1 °F 60.8 °F 30% 29.79 in 10.0 mi NNE 8.1 mph - N/A   Scattered Clouds
10:58 PM 93.2 °F 93.3 °F 60.8 °F 34% 29.81 in 10.0 mi NNE 5.8 mph - N/A   Scattered Clouds